User: anonymous   Login
Location: Eastlake (historical)
(39.0077°N, 122.6678°W)
Time: 20:09:06
(UTC+00:00)
Language:

Aureole 2 Rocket - Orbit

View from above orbital plane
View from above orbital plane
View from above satellite
View from above satellite

Ground track
Ground track

The orbit data is extracted from the following two-line orbital elements,

1 07004U 73107B   21060.05002887  .00045182  24103-5  20717-3 0  9993
2 07004  73.9130 290.3562 0065662 171.6331 188.6011 15.80393197447545
Epoch (UTC): 01 March 2021 01:12:02
Eccentricity: 0.0065662
inclination: 73.9130°
perigee height: 285 km
apogee height: 373 km
right ascension of ascending node: 290.3562°
argument of perigee: 171.6331°
revolutions per day: 15.80393197
mean anomaly at epoch: 188.6011°
orbit number at epoch: 44754

The dashed part of the orbit path shows where the satellite is in the earth's shadow,  

DLR